Regional Weather Roundup
Issued by NWS

Home | Current Version | Previous Version | Graphics & Text | Print | Product List | Glossary On
Versions: 1 2 3 4 5 6 7 8 9 10 11 12 13 14 15 16 17 18 19 20 21 22 23 24 25 26 27 28 29 30 31 32 33 34 35 36 37 38 39 40 41 42 43 44 45 46 47 48 49 50
000
ASUS43 KTOP 032259
RWRKS

WEATHER ROUNDUP FOR KANSAS
NATIONAL WEATHER SERVICE GOODLAND KS
600 PM CDT SUN MAY 03 2015

NOTE:  "FAIR" INDICATES FEW OR NO CLOUDS BELOW 12,000 FEET WITH NO
SIGNIFICANT WEATHER AND/OR OBSTRUCTIONS TO VISIBILITY.

KSZ001>006-013>018-027>032-041>047-040000-
NORTHWEST KANSAS

CITY           SKY/WX    TMP DP  RH WIND       PRES   REMARKS
GOODLAND       PTSUNNY   82  38  20 N5        29.85S
HAYS           PTSUNNY   88  45  22 S13       29.77S
HILL CITY      MOSUNNY   85  48  27 S9        29.76S
RUSSELL        PTSUNNY   89  52  28 S16       29.75S
$$

KSZ061>065-074>080-084>089-040000-
SOUTHWEST KANSAS

CITY           SKY/WX    TMP DP  RH WIND       PRES   REMARKS
DODGE CITY     MOSUNNY   84  45  25 S10       29.79F
ELKHART          N/A     76  41  28 W15         N/A
GARDEN CITY    SUNNY     87  36  16 CALM      29.78F
GREAT BEND     PTSUNNY   82  54  36 S14G22    29.77F
LIBERAL        PTSUNNY   84  43  23 S20G31    29.81R
$$

KSZ066>073-081>083-090>101-040000-
SOUTHEAST KANSAS

CITY           SKY/WX    TMP DP  RH WIND       PRES   REMARKS
CHANUTE        PTSUNNY   79  60  52 S23G29    29.88R
COFFEYVILLE    PTSUNNY   78  59  51 S16G29    29.88S
HUTCHINSON     MOSUNNY   85  56  37 S22G30    29.80R
MEDICINE LODGE   N/A     83  56  39 S17G26    29.80S
NEWTON         MOSUNNY   81  54  39 S22G35    29.84R
PARSONS        PTSUNNY   79  60  52 S13G21    29.90R
WICHITA INTL   PTSUNNY   80  58  46 S24G31    29.83R
WICHITA JABRA  PTSUNNY   79  56  45 S22G36    29.83R
WINFIELD       PTSUNNY   78  56  46 S21G30    29.87S
$$

KSZ007>012-019>026-033>040-048>060-102>105-040000-
NORTHEAST KANSAS

CITY           SKY/WX    TMP DP  RH WIND       PRES   REMARKS
CONCORDIA      MOSUNNY   85  55  35 S18       29.75S
EMPORIA        PTSUNNY   81  54  39 S22G37    29.82R
LAWRENCE       PTSUNNY   83  57  41 S20G30    29.81R
MANHATTAN      MOSUNNY   83  56  39 SW22G29   29.77R
OLATHE IND     PTSUNNY   80  59  48 S20G26    29.85R
OLATHE EXE     PTSUNNY   78  59  51 S14G28    29.84S
SALINA         PTSUNNY   84  58  40 S22       29.77S
TOPEKA BILLARD MOSUNNY   85  57  38 S15G22    29.79R
TOPEKA FORBES  SUNNY     86  57  37 S22G31    29.79R
$$


USA.gov is the U.S. government's official web portal to all federal, state and local government web resources and services.